Time,TemperatureF,DewpointF,PressureIn,WindDirection,WindDirectionDegrees,WindSpeedMPH,WindSpeedGustMPH,Humidity,HourlyPrecipIn,Conditions,Clouds,dailyrainin,SoftwareType,DateUTC
2013-02-26 00:01:00,41.0,33.0,29.67,WNW,284,20.0,28.0,73,0.00,,,0.07,,2013-02-26 05:01:00,
2013-02-26 00:11:00,41.0,34.0,29.67,WNW,291,16.0,32.0,75,0.00,,,0.07,,2013-02-26 05:11:00,
2013-02-26 00:21:00,41.0,34.0,29.67,WNW,291,16.0,32.0,75,0.00,,,0.07,,2013-02-26 05:21:00,
2013-02-26 00:31:00,41.0,34.0,29.68,WNW,303,19.0,28.0,75,0.00,,,0.07,,2013-02-26 05:31:00,
2013-02-26 00:42:00,41.0,34.0,29.68,WNW,303,19.0,28.0,75,0.00,,,0.07,,2013-02-26 05:42:00,
2013-02-26 00:52:00,41.0,34.0,29.69,West,279,13.0,31.0,75,0.00,,,0.07,,2013-02-26 05:52:00,
2013-02-26 01:01:00,41.0,34.0,29.69,WNW,294,17.0,26.0,75,0.00,,,0.07,,2013-02-26 06:01:00,
2013-02-26 01:11:00,41.0,34.0,29.69,WNW,294,17.0,26.0,75,0.00,,,0.07,,2013-02-26 06:11:00,
2013-02-26 01:21:00,41.0,33.0,29.69,NW,305,16.0,26.0,74,0.00,,,0.07,,2013-02-26 06:21:00,
2013-02-26 01:31:00,41.0,33.0,29.70,WNW,301,19.0,28.0,74,0.00,,,0.07,,2013-02-26 06:31:00,
2013-02-26 01:41:00,41.0,33.0,29.70,WNW,301,19.0,28.0,74,0.00,,,0.07,,2013-02-26 06:41:00,
2013-02-26 01:52:00,41.0,33.0,29.70,WNW,297,16.0,26.0,74,0.00,,,0.07,,2013-02-26 06:52:00,
2013-02-26 02:01:00,41.0,33.0,29.70,WNW,289,15.0,35.0,74,0.00,,,0.07,,2013-02-26 07:01:00,
2013-02-26 02:11:00,41.0,33.0,29.70,WNW,289,15.0,35.0,74,0.00,,,0.07,,2013-02-26 07:11:00,
2013-02-26 02:22:00,41.0,33.0,29.71,NW,323,18.0,29.0,73,0.00,,,0.07,,2013-02-26 07:22:00,
2013-02-26 02:31:00,40.0,32.0,29.71,WNW,300,18.0,26.0,72,0.00,,,0.07,,2013-02-26 07:31:00,
2013-02-26 02:41:00,40.0,32.0,29.71,WNW,300,18.0,26.0,72,0.00,,,0.07,,2013-02-26 07:41:00,
2013-02-26 02:52:00,40.0,32.0,29.72,WNW,286,17.0,31.0,72,0.00,,,0.07,,2013-02-26 07:52:00,
2013-02-26 03:01:00,40.0,32.0,29.72,WNW,294,16.0,26.0,72,0.00,,,0.07,,2013-02-26 08:01:00,
2013-02-26 03:11:00,40.0,32.0,29.72,NW,309,17.0,26.0,73,0.00,,,0.07,,2013-02-26 08:11:00,
2013-02-26 03:21:00,40.0,32.0,29.72,NW,309,17.0,26.0,73,0.00,,,0.07,,2013-02-26 08:21:00,
2013-02-26 03:31:00,40.0,32.0,29.72,NW,310,16.0,23.0,73,0.00,,,0.07,,2013-02-26 08:31:00,
2013-02-26 03:41:00,40.0,32.0,29.72,NW,310,16.0,23.0,73,0.00,,,0.07,,2013-02-26 08:41:00,
2013-02-26 03:52:00,40.0,32.0,29.72,WNW,291,14.0,23.0,73,0.00,,,0.07,,2013-02-26 08:52:00,
2013-02-26 04:01:00,40.0,32.0,29.72,West,276,16.0,30.0,72,0.00,,,0.07,,2013-02-26 09:01:00,
2013-02-26 04:11:00,40.0,32.0,29.72,West,276,16.0,30.0,72,0.00,,,0.07,,2013-02-26 09:11:00,
2013-02-26 04:21:00,41.0,33.0,29.73,NW,307,16.0,26.0,72,0.00,,,0.07,,2013-02-26 09:21:00,
2013-02-26 04:31:00,41.0,33.0,29.72,West,277,20.0,26.0,72,0.00,,,0.05,,2013-02-26 09:31:00,
2013-02-26 04:43:00,41.0,33.0,29.72,West,277,20.0,26.0,72,0.00,,,0.05,,2013-02-26 09:43:00,
2013-02-26 04:52:00,41.0,33.0,29.74,WNW,288,13.0,24.0,72,0.00,,,0.05,,2013-02-26 09:52:00,
2013-02-26 05:01:00,41.0,33.0,29.74,WNW,287,12.0,22.0,72,0.00,,,0.02,,2013-02-26 10:01:00,
2013-02-26 05:11:00,41.0,33.0,29.74,WNW,287,12.0,22.0,72,0.00,,,0.02,,2013-02-26 10:11:00,
2013-02-26 05:21:00,41.0,32.0,29.74,WNW,291,16.0,26.0,71,0.00,,,0.01,,2013-02-26 10:21:00,
2013-02-26 05:31:00,40.0,32.0,29.74,WNW,301,10.0,20.0,72,0.00,,,0.01,,2013-02-26 10:31:00,
2013-02-26 05:41:00,40.0,32.0,29.74,WNW,301,10.0,20.0,72,0.00,,,0.01,,2013-02-26 10:41:00,
2013-02-26 05:52:00,40.0,32.0,29.75,West,274,7.0,18.0,72,0.00,,,0.01,,2013-02-26 10:52:00,
2013-02-26 06:01:00,40.0,32.0,29.75,WNW,293,15.0,22.0,72,0.00,,,0.01,,2013-02-26 11:01:00,
2013-02-26 06:11:00,40.0,32.0,29.75,WNW,293,15.0,22.0,72,0.00,,,0.01,,2013-02-26 11:11:00,
2013-02-26 06:21:00,40.0,32.0,29.75,WNW,285,17.0,28.0,72,0.00,,,0.01,,2013-02-26 11:21:00,
2013-02-26 06:32:00,40.0,32.0,29.76,WNW,282,13.0,22.0,72,0.00,,,0.01,,2013-02-26 11:32:00,
2013-02-26 06:42:00,40.0,32.0,29.76,NW,313,12.0,22.0,72,0.00,,,0.01,,2013-02-26 11:42:00,
2013-02-26 06:52:00,40.0,32.0,29.76,NW,313,12.0,22.0,72,0.00,,,0.01,,2013-02-26 11:52:00,
2013-02-26 07:01:00,40.0,32.0,29.78,WNW,299,15.0,23.0,72,0.00,,,0.01,,2013-02-26 12:01:00,
2013-02-26 07:11:00,40.0,32.0,29.78,WNW,299,15.0,23.0,72,0.00,,,0.01,,2013-02-26 12:11:00,
2013-02-26 07:22:00,39.0,31.0,29.79,WNW,298,13.0,25.0,73,0.00,,,0.01,,2013-02-26 12:22:00,
2013-02-26 07:32:00,39.0,31.0,29.80,WNW,294,16.0,26.0,73,0.00,,,0.01,,2013-02-26 12:32:00,
2013-02-26 07:42:00,39.0,31.0,29.80,WNW,294,16.0,26.0,73,0.00,,,0.01,,2013-02-26 12:42:00,
2013-02-26 07:53:00,39.0,31.0,29.80,NW,304,14.0,26.0,73,0.00,,,0.01,,2013-02-26 12:53:00,
2013-02-26 08:01:00,39.0,31.0,29.81,NW,305,10.0,21.0,73,0.00,,,0.01,,2013-02-26 13:01:00,
2013-02-26 08:11:00,39.0,31.0,29.81,NW,307,14.0,26.0,73,0.00,,,0.01,,2013-02-26 13:11:00,
2013-02-26 08:21:00,39.0,31.0,29.81,NW,307,14.0,26.0,73,0.00,,,0.01,,2013-02-26 13:21:00,
2013-02-26 08:32:00,39.0,31.0,29.82,NW,306,13.0,22.0,73,0.00,,,0.01,,2013-02-26 13:32:00,
2013-02-26 08:42:00,39.0,31.0,29.82,NW,306,13.0,22.0,73,0.00,,,0.01,,2013-02-26 13:42:00,
2013-02-26 08:52:00,39.0,31.0,29.83,WNW,290,9.0,15.0,73,0.00,,,0.01,,2013-02-26 13:52:00,
2013-02-26 09:01:00,39.0,31.0,29.83,WNW,296,12.0,16.0,73,0.00,,,0.01,,2013-02-26 14:01:00,
2013-02-26 09:11:00,39.0,31.0,29.83,WNW,296,12.0,16.0,73,0.00,,,0.01,,2013-02-26 14:11:00,
2013-02-26 09:21:00,39.0,31.0,29.83,NW,318,13.0,18.0,73,0.00,,,0.01,,2013-02-26 14:21:00,
2013-02-26 09:31:00,40.0,32.0,29.83,WNW,296,11.0,20.0,73,0.00,,,0.01,,2013-02-26 14:31:00,
2013-02-26 09:42:00,40.0,32.0,29.83,WNW,296,11.0,20.0,73,0.00,,,0.01,,2013-02-26 14:42:00,
2013-02-26 09:52:00,40.0,32.0,29.85,NW,311,13.0,20.0,72,0.00,,,0.01,,2013-02-26 14:52:00,
2013-02-26 10:02:00,41.0,33.0,29.86,WNW,288,10.0,20.0,72,0.00,,,0.01,,2013-02-26 15:02:00,
2013-02-26 10:11:00,41.0,33.0,29.86,WNW,288,10.0,20.0,72,0.00,,,0.01,,2013-02-26 15:11:00,
2013-02-26 10:21:00,41.0,33.0,29.86,WNW,296,12.0,20.0,72,0.00,,,0.01,,2013-02-26 15:21:00,
2013-02-26 10:32:00,41.0,33.0,29.86,WNW,298,9.0,15.0,72,0.00,,,0.00,,2013-02-26 15:32:00,
2013-02-26 10:42:00,41.0,33.0,29.86,WNW,298,9.0,15.0,72,0.00,,,0.00,,2013-02-26 15:42:00,
2013-02-26 10:52:00,42.0,33.0,29.87,WNW,288,10.0,20.0,70,0.00,,,0.00,,2013-02-26 15:52:00,
2013-02-26 11:01:00,43.0,34.0,29.86,NW,308,12.0,20.0,69,0.00,,,0.00,,2013-02-26 16:01:00,
2013-02-26 11:11:00,43.0,34.0,29.86,NW,308,12.0,20.0,69,0.00,,,0.00,,2013-02-26 16:11:00,
2013-02-26 11:22:00,44.0,34.0,29.87,NW,304,13.0,21.0,67,0.00,,,0.00,,2013-02-26 16:22:00,
2013-02-26 11:32:00,44.0,33.0,29.88,WNW,298,13.0,22.0,65,0.00,,,0.00,,2013-02-26 16:32:00,
2013-02-26 11:42:00,44.0,33.0,29.88,WNW,298,13.0,22.0,65,0.00,,,0.00,,2013-02-26 16:42:00,
2013-02-26 11:52:00,45.0,33.0,29.88,NW,312,10.0,15.0,63,0.00,,,0.00,,2013-02-26 16:52:00,
2013-02-26 12:01:00,46.0,34.0,29.88,NW,313,10.0,14.0,63,0.00,,,0.00,,2013-02-26 17:01:00,
2013-02-26 12:11:00,47.0,34.0,29.89,NW,319,14.0,20.0,60,0.00,,,0.00,,2013-02-26 17:11:00,
2013-02-26 12:21:00,47.0,34.0,29.89,NW,319,14.0,20.0,60,0.00,,,0.00,,2013-02-26 17:21:00,
2013-02-26 12:32:00,47.0,34.0,29.89,NW,318,12.0,20.0,60,0.00,,,0.00,,2013-02-26 17:32:00,
2013-02-26 12:41:00,47.0,34.0,29.89,NW,318,12.0,20.0,60,0.00,,,0.00,,2013-02-26 17:41:00,
2013-02-26 12:52:00,48.0,34.0,29.90,WNW,302,16.0,24.0,57,0.00,,,0.00,,2013-02-26 17:52:00,
2013-02-26 13:01:00,49.0,34.0,29.90,NW,318,11.0,20.0,56,0.00,,,0.00,,2013-02-26 18:01:00,
2013-02-26 13:12:00,49.0,34.0,29.90,NW,318,11.0,20.0,56,0.00,,,0.00,,2013-02-26 18:12:00,
2013-02-26 13:21:00,49.0,34.0,29.89,WNW,302,10.0,18.0,55,0.00,,,0.00,,2013-02-26 18:21:00,
2013-02-26 13:32:00,50.0,34.0,29.89,NW,323,13.0,18.0,53,0.00,,,0.00,,2013-02-26 18:32:00,
2013-02-26 13:42:00,50.0,34.0,29.89,NW,323,13.0,18.0,53,0.00,,,0.00,,2013-02-26 18:42:00,
2013-02-26 13:52:00,50.0,33.0,29.89,WNW,299,14.0,21.0,52,0.00,,,0.00,,2013-02-26 18:52:00,
2013-02-26 14:01:00,50.0,33.0,29.88,WNW,299,11.0,20.0,52,0.00,,,0.00,,2013-02-26 19:01:00,
2013-02-26 14:11:00,50.0,33.0,29.88,WNW,299,11.0,20.0,52,0.00,,,0.00,,2013-02-26 19:11:00,
2013-02-26 14:22:00,52.0,34.0,29.88,WSW,250,9.0,16.0,50,0.00,,,0.00,,2013-02-26 19:22:00,
2013-02-26 14:32:00,52.0,33.0,29.87,NW,317,6.0,14.0,48,0.00,,,0.00,,2013-02-26 19:32:00,
2013-02-26 14:41:00,52.0,33.0,29.87,NW,317,6.0,14.0,48,0.00,,,0.00,,2013-02-26 19:41:00,
2013-02-26 14:52:00,53.0,34.0,29.86,West,273,7.0,24.0,49,0.00,,,0.00,,2013-02-26 19:52:00,
2013-02-26 15:01:00,53.0,34.0,29.85,WNW,292,9.0,15.0,48,0.00,,,0.00,,2013-02-26 20:01:00,
2013-02-26 15:11:00,53.0,34.0,29.85,WNW,292,9.0,15.0,48,0.00,,,0.00,,2013-02-26 20:11:00,
2013-02-26 15:21:00,54.0,34.0,29.84,NW,324,10.0,15.0,46,0.00,,,0.00,,2013-02-26 20:21:00,
2013-02-26 15:31:00,54.0,34.0,29.84,WNW,300,8.0,14.0,47,0.00,,,0.00,,2013-02-26 20:31:00,
2013-02-26 15:41:00,54.0,34.0,29.84,WNW,300,8.0,14.0,47,0.00,,,0.00,,2013-02-26 20:41:00,
2013-02-26 15:52:00,55.0,33.0,29.84,NW,323,12.0,20.0,44,0.00,,,0.00,,2013-02-26 20:52:00,
2013-02-26 16:01:00,55.0,33.0,29.84,WNW,290,6.0,12.0,44,0.00,,,0.00,,2013-02-26 21:01:00,
2013-02-26 16:11:00,55.0,33.0,29.83,West,267,7.0,13.0,44,0.00,,,0.00,,2013-02-26 21:11:00,
2013-02-26 16:21:00,55.0,33.0,29.83,West,267,7.0,13.0,44,0.00,,,0.00,,2013-02-26 21:21:00,
2013-02-26 16:31:00,56.0,34.0,29.83,NW,311,8.0,12.0,44,0.00,,,0.00,,2013-02-26 21:31:00,
2013-02-26 16:41:00,56.0,34.0,29.83,NW,311,8.0,12.0,44,0.00,,,0.00,,2013-02-26 21:41:00,
2013-02-26 16:51:00,56.0,33.0,29.83,WNW,300,5.0,12.0,42,0.00,,,0.00,,2013-02-26 21:51:00,
2013-02-26 17:01:00,57.0,34.0,29.83,WNW,301,7.0,13.0,42,0.00,,,0.00,,2013-02-26 22:01:00,
2013-02-26 17:11:00,57.0,34.0,29.83,West,279,5.0,8.0,41,0.00,,,0.00,,2013-02-26 22:11:00,
2013-02-26 17:21:00,57.0,34.0,29.83,West,279,5.0,8.0,41,0.00,,,0.00,,2013-02-26 22:21:00,
2013-02-26 17:31:00,57.0,34.0,29.83,WNW,290,5.0,8.0,41,0.00,,,0.00,,2013-02-26 22:31:00,
2013-02-26 17:41:00,57.0,34.0,29.83,WNW,290,5.0,8.0,41,0.00,,,0.00,,2013-02-26 22:41:00,
2013-02-26 17:52:00,57.0,34.0,29.82,WNW,300,8.0,12.0,41,0.00,,,0.00,,2013-02-26 22:52:00,
2013-02-26 18:01:00,57.0,33.0,29.82,NW,322,7.0,12.0,40,0.00,,,0.00,,2013-02-26 23:01:00,
2013-02-26 18:11:00,57.0,33.0,29.82,NW,322,7.0,12.0,40,0.00,,,0.00,,2013-02-26 23:11:00,
2013-02-26 18:21:00,57.0,33.0,29.82,West,271,6.0,13.0,40,0.00,,,0.00,,2013-02-26 23:21:00,
2013-02-26 18:31:00,57.0,33.0,29.82,WNW,297,6.0,12.0,40,0.00,,,0.00,,2013-02-26 23:31:00,
2013-02-26 18:41:00,57.0,33.0,29.82,WNW,297,6.0,12.0,40,0.00,,,0.00,,2013-02-26 23:41:00,
2013-02-26 18:52:00,58.0,33.0,29.82,West,270,2.0,7.0,39,0.00,,,0.00,,2013-02-26 23:52:00,
2013-02-26 19:01:00,57.0,32.0,29.82,NW,311,5.0,9.0,39,0.00,,,0.00,,2013-02-27 00:01:00,
2013-02-26 19:11:00,57.0,32.0,29.82,NW,311,5.0,9.0,39,0.00,,,0.00,,2013-02-27 00:11:00,
2013-02-26 19:21:00,57.0,33.0,29.82,NW,311,0.0,1.0,40,0.00,,,0.00,,2013-02-27 00:21:00,
2013-02-26 19:31:00,57.0,33.0,29.83,NW,307,0.0,6.0,40,0.00,,,0.00,,2013-02-27 00:31:00,
2013-02-26 19:41:00,57.0,33.0,29.83,NW,307,0.0,6.0,40,0.00,,,0.00,,2013-02-27 00:41:00,
2013-02-26 19:52:00,56.0,32.0,29.83,NW,307,0.0,2.0,40,0.00,,,0.00,,2013-02-27 00:52:00,
2013-02-26 20:01:00,55.0,32.0,29.84,NW,307,0.0,1.0,41,0.00,,,0.00,,2013-02-27 01:01:00,
2013-02-26 20:11:00,55.0,32.0,29.84,NW,307,0.0,1.0,41,0.00,,,0.00,,2013-02-27 01:11:00,
2013-02-26 20:21:00,54.0,31.0,29.84,NW,307,0.0,1.0,42,0.00,,,0.00,,2013-02-27 01:21:00,
2013-02-26 20:31:00,53.0,32.0,29.84,NW,307,0.0,0.0,44,0.00,,,0.00,,2013-02-27 01:31:00,
2013-02-26 20:42:00,53.0,32.0,29.84,NW,307,0.0,0.0,44,0.00,,,0.00,,2013-02-27 01:42:00,
2013-02-26 20:52:00,52.0,32.0,29.84,NW,307,0.0,0.0,47,0.00,,,0.00,,2013-02-27 01:52:00,
2013-02-26 21:01:00,51.0,33.0,29.85,NW,307,0.0,0.0,50,0.00,,,0.00,,2013-02-27 02:01:00,
2013-02-26 21:14:00,51.0,33.0,29.85,NW,307,0.0,0.0,50,0.00,,,0.00,,2013-02-27 02:14:00,
2013-02-26 21:23:00,50.0,33.0,29.85,NW,307,0.0,0.0,52,0.00,,,0.00,,2013-02-27 02:23:00,
2013-02-26 21:32:00,49.0,34.0,29.86,NW,307,0.0,0.0,55,0.00,,,0.00,,2013-02-27 02:32:00,
2013-02-26 21:42:00,49.0,34.0,29.86,NW,307,0.0,0.0,55,0.00,,,0.00,,2013-02-27 02:42:00,
2013-02-26 21:52:00,48.0,33.0,29.86,NW,307,0.0,0.0,56,0.00,,,0.00,,2013-02-27 02:52:00,
2013-02-26 22:01:00,47.0,33.0,29.86,NW,307,0.0,0.0,58,0.00,,,0.00,,2013-02-27 03:01:00,
2013-02-26 22:11:00,47.0,33.0,29.87,NW,307,0.0,0.0,59,0.00,,,0.00,,2013-02-27 03:11:00,
2013-02-26 22:21:00,47.0,33.0,29.87,NW,307,0.0,0.0,59,0.00,,,0.00,,2013-02-27 03:21:00,
2013-02-26 22:32:00,46.0,33.0,29.88,NW,307,0.0,0.0,60,0.00,,,0.00,,2013-02-27 03:32:00,
2013-02-26 22:41:00,46.0,33.0,29.88,NW,307,0.0,0.0,60,0.00,,,0.00,,2013-02-27 03:41:00,
2013-02-26 22:52:00,45.0,33.0,29.88,NW,307,0.0,0.0,62,0.00,,,0.00,,2013-02-27 03:52:00,
2013-02-26 23:01:00,45.0,34.0,29.89,NW,307,0.0,0.0,64,0.00,,,0.00,,2013-02-27 04:01:00,
2013-02-26 23:11:00,45.0,34.0,29.89,NW,307,0.0,0.0,64,0.00,,,0.00,,2013-02-27 04:11:00,
2013-02-26 23:21:00,44.0,33.0,29.88,NW,307,0.0,0.0,65,0.00,,,0.00,,2013-02-27 04:21:00,
2013-02-26 23:32:00,44.0,33.0,29.88,NW,307,0.0,0.0,66,0.00,,,0.00,,2013-02-27 04:32:00,
2013-02-26 23:41:00,44.0,33.0,29.88,NW,307,0.0,0.0,66,0.00,,,0.00,,2013-02-27 04:41:00,
2013-02-26 23:52:00,44.0,33.0,29.88,NW,307,0.0,0.0,66,0.00,,,0.00,,2013-02-27 04:52:00,